Tracking 19192 objects as of 19-Jun-2018
HD Live streaming from Space Station
objects crossing your sky now

FENGYUN 1C DEB

Track FENGYUN 1C DEB now!
10-day predictions


NORAD ID: 38809
Int'l Code: 1999-025EUZ
Perigee: 687.3 km
Apogee: 1,031.9 km
Inclination: 98.8 °
Period: 102.0 minutes
Semi major axis: 7230 km
RCS: 0.003 m2 (small)
Launch date: May 10, 1999
Source: People's Republic of China (PRC)
Launch site: Taiyaun Space Center, China (TSC)

Note: This is SATELLITE DEBRIS
aabbcc
Your satellite tracking list
Your tracking list is empty




NASA's NSSDC Master Catalog

Two Line Element Set (TLE):
1 38809U 99025EUZ 18168.31674949 +.00000353 +00000-0 +16726-3 0  9996
2 38809 098.8373 213.4488 0238322 217.3872 141.0511 14.12018085374308
Source of the keplerian elements: AFSPC